Hourly Data Report for October 31, 2013

All times are specified in Local Standard Time (LST). Add 1 hour to adjust for Daylight Saving Time where and when it is observed.

MONCTON INTL A
NEW BRUNSWICK

46°06'44.000" N
64°40'43.000" W
70.70 m
8103201
71705
YQM

Download Data

Hourly Data (October 2013)
Hourly Data Report for October 31, 2013
Temp Definition
°C
Dew Point Temp Definition
°C
Rel Hum Definition
%
Wind Dir Definition
10's deg

Wind Spd Definition
km/h
Visibility Definition
km
Stn Press Definition
kPa
Hmdx Definition


Wind Chill Definition


Weather Definition


TIME
00:00 Legend Double Dagger -3.6 -7.8 73 23 10 24.1 101.17   -8 LegendNANA
01:00 Legend Double Dagger -4.4 -6.9 83 24 11 24.1 101.21   -9 LegendNANA
02:00 Legend Double Dagger -4.6 -7.7 79 22 12 24.1 101.25   -9 Clear
03:00 Legend Double Dagger -4.4 -7.7 78 23 13 24.1 101.31   -9 LegendNANA
04:00 Legend Double Dagger -5.2 -8.0 81 20 15 24.1 101.32   -11 LegendNANA
05:00 Legend Double Dagger -3.9 -7.4 77 24 13 24.1 101.33   -9 Clear
06:00 Legend Double Dagger -4.9 -7.8 80 23 12 24.1 101.34   -10 LegendNANA
07:00 Legend Double Dagger -5.4 -7.7 84 22 10 24.1 101.35   -10 LegendNANA
08:00 Legend Double Dagger -3.8 -6.4 82 21 9 24.1 101.43   -8 Mainly Clear
09:00 Legend Double Dagger -0.5 -4.9 72 23 10 24.1 101.46   -4 LegendNANA
10:00 Legend Double Dagger 2.3 -3.8 64 23 17 24.1 101.44     LegendNANA
11:00 Legend Double Dagger 4.9 -2.9 57 23 18 24.1 101.40     Mainly Clear
12:00 Legend Double Dagger 6.2 -5.2 44 23 24 24.1 101.30     LegendNANA
13:00 Legend Double Dagger 6.3 -4.8 45 21 24 24.1 101.17     LegendNANA
14:00 Legend Double Dagger 6.8 -4.6 44 23 24 24.1 101.14     Mostly Cloudy
15:00 Legend Double Dagger 6.9 -4.5 44 22 22 24.1 101.06     LegendNANA
16:00 Legend Double Dagger 6.5 -3.7 48 20 17 24.1 101.09     LegendNANA
17:00 Legend Double Dagger 6.0 -1.4 59 18 17 24.1 100.98     Cloudy
18:00 Legend Double Dagger 5.7 -0.6 64 17 14 24.1 100.88     LegendNANA
19:00 Legend Double Dagger 6.3 1.8 73 16 17 24.1 100.78     LegendNANA
20:00 Legend Double Dagger 6.6 3.8 82 16 18 19.3 100.70     Rain Showers
21:00 Legend Double Dagger 6.3 4.8 90 15 26 19.3 100.53     Rain Showers
22:00 Legend Double Dagger 6.9 6.0 94 15 30 19.3 100.31     Rain Showers
23:00 Legend Double Dagger 8.3 7.4 94 17 30 19.3 100.17     Rain Showers

Notes on Data Quality.

Legend

  • E = Estimated
  • M = Missing
  • NA = Not Available
  • ‡ = Partner data that is not subject to review by the National Climate Archives
Date modified: